Time,TemperatureF,DewpointF,PressureIn,WindDirection,WindDirectionDegrees,WindSpeedMPH,WindSpeedGustMPH,Humidity,HourlyPrecipIn,Conditions,Clouds,dailyrainin,SoftwareType,DateUTC
2013-03-17 00:07:00,40.3,39.8,29.82,NNW,337,8.9,-999.0,98,-99.99,,,0.00,Acu-Link.com,2013-03-17 04:07:00,
2013-03-17 00:22:00,40.1,39.6,29.82,NNW,337,6.3,-999.0,98,-99.99,,,0.00,Acu-Link.com,2013-03-17 04:22:00,
2013-03-17 00:38:00,39.7,39.2,29.84,NNE,22,8.3,-999.0,98,-99.99,,,0.00,Acu-Link.com,2013-03-17 04:38:00,
2013-03-17 00:53:00,39.7,39.2,29.84,NE,45,8.3,-999.0,98,-99.99,,,0.00,Acu-Link.com,2013-03-17 04:53:00,
2013-03-17 01:08:00,39.4,38.9,29.84,NW,315,4.7,-999.0,98,-99.99,,,0.00,Acu-Link.com,2013-03-17 05:08:00,
2013-03-17 01:23:00,39.2,38.7,29.85,NNE,22,7.8,-999.0,98,-99.99,,,0.00,Acu-Link.com,2013-03-17 05:23:00,
2013-03-17 01:38:00,38.8,38.3,29.85,North,0,5.3,-999.0,98,-99.99,,,0.00,Acu-Link.com,2013-03-17 05:38:00,
2013-03-17 01:53:00,38.8,38.3,29.86,NNE,22,5.3,-999.0,98,-99.99,,,0.00,Acu-Link.com,2013-03-17 05:53:00,
2013-03-17 02:09:00,39.0,38.5,29.87,NNE,22,3.2,-999.0,98,-99.99,,,0.00,Acu-Link.com,2013-03-17 06:09:00,
2013-03-17 02:24:00,38.8,38.3,29.87,North,0,4.2,-999.0,98,-99.99,,,0.00,Acu-Link.com,2013-03-17 06:24:00,
2013-03-17 02:39:00,38.7,38.2,29.88,WNW,292,7.8,-999.0,98,-99.99,,,0.00,Acu-Link.com,2013-03-17 06:39:00,
2013-03-17 02:55:00,38.3,37.8,29.89,North,0,7.8,-999.0,98,-99.99,,,0.00,Acu-Link.com,2013-03-17 06:55:00,
2013-03-17 03:10:00,38.5,38.0,29.88,NE,45,4.7,-999.0,98,-99.99,,,0.00,Acu-Link.com,2013-03-17 07:10:00,
2013-03-17 03:25:00,38.3,37.8,29.88,NNE,22,6.8,-999.0,98,-99.99,,,0.00,Acu-Link.com,2013-03-17 07:25:00,
2013-03-17 03:41:00,37.9,37.4,29.89,NNE,22,6.3,-999.0,98,-99.99,,,0.00,Acu-Link.com,2013-03-17 07:41:00,
2013-03-17 04:11:00,38.3,37.8,29.89,NE,45,7.3,-999.0,98,-99.99,,,0.00,Acu-Link.com,2013-03-17 08:11:00,
2013-03-17 04:26:00,38.5,38.0,29.89,NNE,22,8.3,-999.0,98,-99.99,,,0.00,Acu-Link.com,2013-03-17 08:26:00,
2013-03-17 04:42:00,38.5,38.0,29.90,North,0,7.3,-999.0,98,-99.99,,,0.00,Acu-Link.com,2013-03-17 08:42:00,
2013-03-17 05:12:00,38.1,37.6,29.92,NNE,22,3.7,-999.0,98,-99.99,,,0.00,Acu-Link.com,2013-03-17 09:12:00,
2013-03-17 05:27:00,38.3,37.8,29.92,NNW,337,5.3,-999.0,98,-99.99,,,0.00,Acu-Link.com,2013-03-17 09:27:00,
2013-03-17 05:42:00,38.1,37.6,29.93,NE,45,8.3,-999.0,98,-99.99,,,0.00,Acu-Link.com,2013-03-17 09:42:00,
2013-03-17 05:57:00,37.9,37.4,29.94,North,0,4.7,-999.0,98,-99.99,,,0.00,Acu-Link.com,2013-03-17 09:57:00,
2013-03-17 06:13:00,38.1,31.2,29.95,NE,45,4.2,-999.0,76,-99.99,,,0.00,Acu-Link.com,2013-03-17 10:13:00,
2013-03-17 06:28:00,37.9,36.1,29.96,NE,45,2.7,-999.0,93,-99.99,,,0.00,Acu-Link.com,2013-03-17 10:28:00,
2013-03-17 06:43:00,37.9,37.4,29.98,NE,45,4.2,-999.0,98,-99.99,,,0.00,Acu-Link.com,2013-03-17 10:43:00,
2013-03-17 06:58:00,38.1,34.9,29.99,NNW,337,4.2,-999.0,88,-99.99,,,0.00,Acu-Link.com,2013-03-17 10:58:00,
2013-03-17 07:14:00,37.9,32.6,29.99,ENE,67,4.2,-999.0,81,-99.99,,,0.00,Acu-Link.com,2013-03-17 11:14:00,
2013-03-17 07:29:00,36.9,-1.5,30.00,North,0,6.3,-999.0,19,-99.99,,,0.00,Acu-Link.com,2013-03-17 11:29:00,
2013-03-17 07:44:00,38.1,-36.0,30.01,North,0,4.2,-999.0,3,-99.99,,,0.00,Acu-Link.com,2013-03-17 11:44:00,
2013-03-17 08:00:00,38.1,-54.3,30.02,NE,45,6.8,-999.0,1,-99.99,,,0.00,Acu-Link.com,2013-03-17 12:00:00,
2013-03-17 08:15:00,37.9,-54.4,30.02,NNE,22,4.2,-999.0,1,-99.99,,,0.00,Acu-Link.com,2013-03-17 12:15:00,
2013-03-17 08:30:00,38.1,-54.3,30.03,NNW,337,3.7,-999.0,1,-99.99,,,0.00,Acu-Link.com,2013-03-17 12:30:00,
2013-03-17 08:45:00,38.1,-54.3,30.03,North,0,6.3,-999.0,1,-99.99,,,0.00,Acu-Link.com,2013-03-17 12:45:00,
2013-03-17 09:00:00,37.9,-54.4,30.05,North,0,5.8,-999.0,1,-99.99,,,0.00,Acu-Link.com,2013-03-17 13:00:00,
2013-03-17 09:46:00,38.5,-54.0,30.07,NNE,22,5.3,-999.0,1,-99.99,,,0.00,Acu-Link.com,2013-03-17 13:46:00,
2013-03-17 10:01:00,37.9,-54.4,30.07,North,0,8.3,-999.0,1,-99.99,,,0.00,Acu-Link.com,2013-03-17 14:01:00,
2013-03-17 10:47:00,39.6,-53.3,30.07,NE,45,6.8,-999.0,1,-99.99,,,0.00,Acu-Link.com,2013-03-17 14:47:00,
2013-03-17 11:02:00,39.4,-53.5,30.08,NE,45,6.3,-999.0,1,-99.99,,,0.00,Acu-Link.com,2013-03-17 15:02:00,
2013-03-17 11:17:00,39.7,-53.3,30.10,NE,45,4.7,-999.0,1,-99.99,,,0.00,Acu-Link.com,2013-03-17 15:17:00,
2013-03-17 11:32:00,39.2,-53.6,30.10,North,0,8.3,-999.0,1,-99.99,,,0.00,Acu-Link.com,2013-03-17 15:32:00,
2013-03-17 11:47:00,39.0,-53.7,30.09,North,0,4.7,-999.0,1,-99.99,,,0.00,Acu-Link.com,2013-03-17 15:47:00,
2013-03-17 12:03:00,39.6,32.0,30.09,NNW,337,8.9,-999.0,74,-99.99,,,0.00,Acu-Link.com,2013-03-17 16:03:00,
2013-03-17 12:18:00,39.4,-53.5,30.10,NNE,22,8.9,-999.0,1,-99.99,,,0.00,Acu-Link.com,2013-03-17 16:18:00,
2013-03-17 12:33:00,39.4,-53.5,30.11,NNE,22,5.8,-999.0,1,-99.99,,,0.00,Acu-Link.com,2013-03-17 16:33:00,
2013-03-17 12:48:00,39.6,-53.3,30.12,NE,45,4.2,-999.0,1,-99.99,,,0.00,Acu-Link.com,2013-03-17 16:48:00,
2013-03-17 13:03:00,39.0,-53.7,30.11,NNW,337,8.3,-999.0,1,-99.99,,,0.00,Acu-Link.com,2013-03-17 17:03:00,
2013-03-17 13:19:00,39.0,-53.7,30.12,North,0,8.3,-999.0,1,-99.99,,,0.00,Acu-Link.com,2013-03-17 17:19:00,
2013-03-17 13:34:00,39.4,28.6,30.12,NNW,337,5.8,-999.0,65,-99.99,,,0.00,Acu-Link.com,2013-03-17 17:34:00,
2013-03-17 13:49:00,39.6,-42.0,30.12,North,0,5.8,-999.0,2,-99.99,,,0.00,Acu-Link.com,2013-03-17 17:49:00,
2013-03-17 14:04:00,39.9,-53.2,30.10,West,270,5.3,-999.0,1,-99.99,,,0.00,Acu-Link.com,2013-03-17 18:04:00,
2013-03-17 14:19:00,39.7,20.6,30.09,NNW,337,6.8,-999.0,46,-99.99,,,0.00,Acu-Link.com,2013-03-17 18:19:00,
2013-03-17 14:34:00,39.4,-53.5,30.09,NNE,22,5.3,-999.0,1,-99.99,,,0.00,Acu-Link.com,2013-03-17 18:34:00,
2013-03-17 14:49:00,38.5,-54.0,30.10,NNE,22,5.3,-999.0,1,-99.99,,,0.00,Acu-Link.com,2013-03-17 18:49:00,
2013-03-17 15:04:00,38.5,-54.0,30.09,NE,45,3.2,-999.0,1,-99.99,,,0.00,Acu-Link.com,2013-03-17 19:04:00,
2013-03-17 15:19:00,38.3,-54.2,30.08,NE,45,3.7,-999.0,1,-99.99,,,0.00,Acu-Link.com,2013-03-17 19:19:00,
2013-03-17 15:35:00,38.5,-54.0,30.09,NW,315,4.7,-999.0,1,-99.99,,,0.00,Acu-Link.com,2013-03-17 19:35:00,
2013-03-17 15:50:00,38.7,-53.9,30.10,NNE,22,4.2,-999.0,1,-99.99,,,0.00,Acu-Link.com,2013-03-17 19:50:00,
2013-03-17 16:05:00,39.0,-53.7,30.11,NE,45,5.8,-999.0,1,-99.99,,,0.00,Acu-Link.com,2013-03-17 20:05:00,
2013-03-17 16:20:00,39.2,37.3,30.11,North,0,5.3,-999.0,93,-99.99,,,0.00,Acu-Link.com,2013-03-17 20:20:00,
2013-03-17 16:35:00,39.2,22.1,30.12,NNW,337,7.3,-999.0,50,-99.99,,,0.00,Acu-Link.com,2013-03-17 20:35:00,
2013-03-17 16:50:00,39.2,26.1,30.12,North,0,3.7,-999.0,59,-99.99,,,0.00,Acu-Link.com,2013-03-17 20:50:00,
2013-03-17 17:21:00,39.4,-42.1,30.12,NNE,22,3.7,-999.0,2,-99.99,,,0.00,Acu-Link.com,2013-03-17 21:21:00,
2013-03-17 17:36:00,39.2,-53.6,30.13,NNE,22,3.2,-999.0,1,-99.99,,,0.00,Acu-Link.com,2013-03-17 21:36:00,
2013-03-17 18:22:00,38.7,-35.6,30.14,NNE,22,3.7,-999.0,3,-99.99,,,0.00,Acu-Link.com,2013-03-17 22:22:00,
2013-03-17 18:37:00,38.7,-4.9,30.14,NNE,22,6.8,-999.0,15,-99.99,,,0.00,Acu-Link.com,2013-03-17 22:37:00,
2013-03-17 18:52:00,38.7,-7.9,30.15,NNW,337,2.7,-999.0,13,-99.99,,,0.00,Acu-Link.com,2013-03-17 22:52:00,
2013-03-17 19:07:00,38.7,-23.0,30.15,NNE,22,2.7,-999.0,6,-99.99,,,0.00,Acu-Link.com,2013-03-17 23:07:00,
2013-03-17 19:23:00,38.7,-53.9,30.16,NW,315,3.2,-999.0,1,-99.99,,,0.00,Acu-Link.com,2013-03-17 23:23:00,
2013-03-17 19:38:00,38.3,37.8,30.17,NNW,337,3.7,-999.0,98,-99.99,,,0.00,Acu-Link.com,2013-03-17 23:38:00,
2013-03-17 19:53:00,38.3,35.3,30.17,NNW,337,3.7,-999.0,89,-99.99,,,0.00,Acu-Link.com,2013-03-17 23:53:00,
2013-03-17 20:08:00,38.3,-54.2,30.17,North,0,4.2,-999.0,1,-99.99,,,0.00,Acu-Link.com,2013-03-18 00:08:00,
2013-03-17 20:23:00,38.5,-54.0,30.18,North,0,3.7,-999.0,1,-99.99,,,0.00,Acu-Link.com,2013-03-18 00:23:00,
2013-03-17 20:38:00,38.3,-54.2,30.18,NNW,337,4.2,-999.0,1,-99.99,,,0.00,Acu-Link.com,2013-03-18 00:38:00,
2013-03-17 20:53:00,38.3,-54.2,30.18,North,0,1.7,-999.0,1,-99.99,,,0.00,Acu-Link.com,2013-03-18 00:53:00,
2013-03-17 21:08:00,38.5,-54.0,30.19,NE,45,3.7,-999.0,1,-99.99,,,0.00,Acu-Link.com,2013-03-18 01:08:00,
2013-03-17 21:24:00,38.7,-53.9,30.20,North,0,2.7,-999.0,1,-99.99,,,0.00,Acu-Link.com,2013-03-18 01:24:00,
2013-03-17 21:39:00,39.0,-53.7,30.19,North,0,3.7,-999.0,1,-99.99,,,0.00,Acu-Link.com,2013-03-18 01:39:00,
2013-03-17 21:54:00,39.2,11.1,30.19,NNE,22,6.8,-999.0,31,-99.99,,,0.00,Acu-Link.com,2013-03-18 01:54:00,
2013-03-17 22:09:00,39.4,-53.5,30.19,NE,45,5.8,-999.0,1,-99.99,,,0.00,Acu-Link.com,2013-03-18 02:09:00,
2013-03-17 22:24:00,39.4,-53.5,30.20,NE,45,3.7,-999.0,1,-99.99,,,0.00,Acu-Link.com,2013-03-18 02:24:00,
2013-03-17 22:39:00,39.2,-26.0,30.19,ESE,112,2.2,-999.0,5,-99.99,,,0.00,Acu-Link.com,2013-03-18 02:39:00,
2013-03-17 22:54:00,39.2,-53.6,30.19,NE,45,3.7,-999.0,1,-99.99,,,0.00,Acu-Link.com,2013-03-18 02:54:00,
2013-03-17 23:10:00,39.2,-53.6,30.19,NE,45,4.7,-999.0,1,-99.99,,,0.00,Acu-Link.com,2013-03-18 03:10:00,
2013-03-17 23:25:00,39.0,-53.7,30.20,NE,45,3.7,-999.0,1,-99.99,,,0.00,Acu-Link.com,2013-03-18 03:25:00,
2013-03-17 23:40:00,39.0,-53.7,30.21,NE,45,4.2,-999.0,1,-99.99,,,0.00,Acu-Link.com,2013-03-18 03:40:00,
2013-03-17 23:55:00,40.3,-52.9,30.21,NE,45,7.8,-999.0,1,-99.99,,,0.00,Acu-Link.com,2013-03-18 03:55:00,